Weather History for LFPB - September, 2013

Change the Weather History Date:

Wednesday, September 11, 2013

  Actual Average Record
Temperature  
Mean Temperature 56 °F -  
Max Temperature 60 °F 66 °F 89 °F (1999)
Min Temperature 53 °F 50 °F 44 °F (2001)
Degree Days  
Heating Degree Days 8    
Growing Degree Days 6 (Base 50)    
Moisture  
Dew Point 51 °F    
Average Humidity 81    
Maximum Humidity 94    
Minimum Humidity 72    
Precipitation  
Precipitation 0.00 in 0.07 in - ()
Sea Level Pressure  
Sea Level Pressure 30.11 in    
Wind  
Wind Speed 8 mph ()    
Max Wind Speed 13 mph    
Max Gust Speed -    
Visibility 6.2 miles    
Events Rain    
Averages and records for this station are not official NWS values.
T = Trace of Precipitation, MM = Missing Value Source: Averaged Metar Reports

Daily Weather History Graph

Daily Weather History Graph

Search for Another Location

Airport or City:

Trip Planner

Search our weather history database for the weather conditions in past years. The results will help you decide how hot, cold, wet, or windy it might be!

Date:

Astronomy

Sep. 11, 2013 Rise Set
Actual Time 7:21 AM CEST 8:11 PM CEST
Civil Twilight 6:49 AM CEST 8:43 PM CEST
Nautical Twilight 6:10 AM CEST 9:21 PM CEST
Astronomical Twilight 5:29 AM CEST 10:02 PM CEST
Moon 2:06 PM CEST (9/11) 11:20 PM CEST (9/11)
Length of Visible Light 13h 54m
Length of Day
12h 50m
Waxing Crescent, 36% of the Moon is Illuminated
Sep 11
Waxing Crescent
Sep 12
First Quarter
Sep 19
Full
Sep 27
Last Quarter
Oct 5
New

Hourly Weather History & Observations

Time (CEST) Temp. Dew Point Humidity Pressure Visibility Wind Dir Wind Speed Gust Speed Precip Events Conditions
12:00 AM 57.2 °F 48.2 °F 72% 30.12 in 6.2 mi West 8.1 mph - N/A   Unknown
12:30 AM 57.2 °F 48.2 °F 72% 30.12 in 6.2 mi WNW 8.1 mph - N/A   Mostly Cloudy
1:00 AM 57.2 °F 48.2 °F 72% 30.12 in 6.2 mi WNW 8.1 mph - N/A   Mostly Cloudy
1:30 AM 57.2 °F 48.2 °F 72% 30.12 in 6.2 mi WNW 6.9 mph - N/A   Unknown
2:00 AM 55.4 °F 50.0 °F 82% 30.12 in 6.2 mi WNW 6.9 mph - N/A   Mostly Cloudy
2:30 AM 55.4 °F 50.0 °F 82% 30.12 in 6.2 mi West 9.2 mph - N/A   Overcast
3:00 AM 55.4 °F 50.0 °F 82% 30.12 in 6.2 mi West 8.1 mph - N/A Rain Light Rain
3:30 AM 53.6 °F 51.8 °F 94% 30.09 in 6.2 mi West 8.1 mph - N/A Rain Light Rain
4:00 AM 53.6 °F 51.8 °F 94% 30.09 in 6.2 mi West 8.1 mph - N/A   Mostly Cloudy
4:30 AM 53.6 °F 51.8 °F 94% 30.09 in 6.2 mi West 6.9 mph - N/A   Overcast
5:00 AM 55.4 °F 51.8 °F 88% 30.09 in 6.2 mi West 8.1 mph - N/A   Overcast
5:30 AM 55.4 °F 51.8 °F 88% 30.09 in 6.2 mi West 8.1 mph - N/A   Overcast
6:00 AM 55.4 °F 51.8 °F 88% 30.09 in 6.2 mi West 10.4 mph - N/A   Overcast
6:30 AM 55.4 °F 51.8 °F 88% 30.09 in 6.2 mi West 11.5 mph - N/A   Overcast
7:00 AM 55.4 °F 51.8 °F 88% 30.09 in 6.2 mi WNW 11.5 mph - N/A   Overcast
7:30 AM 55.4 °F 51.8 °F 88% 30.09 in 6.2 mi WNW 8.1 mph - N/A   Mostly Cloudy
8:00 AM 55.4 °F 51.8 °F 88% 30.09 in 6.2 mi WNW 10.4 mph - N/A   Overcast
8:30 AM 55.4 °F 51.8 °F 88% 30.09 in 6.2 mi WNW 9.2 mph - N/A   Overcast
9:00 AM 55.4 °F 51.8 °F 88% 30.09 in 6.2 mi WNW 6.9 mph - N/A   Overcast
9:30 AM 57.2 °F 53.6 °F 88% 30.09 in 6.2 mi WNW 8.1 mph - N/A   Overcast
10:00 AM 57.2 °F 53.6 °F 88% 30.09 in 6.2 mi WNW 8.1 mph - N/A   Overcast
10:30 AM 57.2 °F 53.6 °F 88% 30.12 in 6.2 mi NW 8.1 mph - N/A   Overcast
11:00 AM 59.0 °F 53.6 °F 82% 30.12 in 6.2 mi NW 8.1 mph - N/A   Overcast
11:30 AM 59.0 °F 53.6 °F 82% 30.12 in 6.2 mi WNW 10.4 mph - N/A   Overcast
12:00 PM 59.0 °F 51.8 °F 77% 30.12 in 6.2 mi NW 10.4 mph - N/A   Overcast
12:30 PM 60.8 °F 53.6 °F 77% 30.12 in 6.2 mi West 9.2 mph - N/A   Overcast
1:00 PM 60.8 °F 53.6 °F 77% 30.12 in 6.2 mi WNW 10.4 mph - N/A   Overcast
1:30 PM 60.8 °F 51.8 °F 72% 30.12 in 6.2 mi NW 12.7 mph - N/A   Mostly Cloudy
2:00 PM 60.8 °F 51.8 °F 72% 30.12 in 6.2 mi NW 9.2 mph - N/A   Overcast
2:30 PM 60.8 °F 53.6 °F 77% 30.12 in 6.2 mi NW 9.2 mph - N/A   Mostly Cloudy
3:00 PM 60.8 °F 51.8 °F 72% 30.12 in 6.2 mi NW 11.5 mph - N/A   Overcast
3:30 PM 59.0 °F 51.8 °F 77% 30.12 in 6.2 mi NW 9.2 mph - N/A   Overcast
4:00 PM 59.0 °F 51.8 °F 77% 30.12 in 6.2 mi WNW 9.2 mph - N/A   Overcast
4:30 PM 59.0 °F 51.8 °F 77% 30.12 in 6.2 mi WNW 9.2 mph - N/A   Overcast
5:00 PM 59.0 °F 53.6 °F 82% 30.12 in 6.2 mi NW 8.1 mph - N/A   Mostly Cloudy
5:30 PM 59.0 °F 51.8 °F 77% 30.12 in 6.2 mi WNW 11.5 mph - N/A   Mostly Cloudy
6:00 PM 60.8 °F 51.8 °F 72% 30.12 in 6.2 mi NW 12.7 mph - N/A   Overcast
6:30 PM 59.0 °F 51.8 °F 77% 30.12 in 6.2 mi NW 10.4 mph - N/A   Mostly Cloudy
7:00 PM 57.2 °F 51.8 °F 82% 30.12 in 6.2 mi NW 10.4 mph - N/A   Mostly Cloudy
7:30 PM 57.2 °F 51.8 °F 82% 30.12 in 6.2 mi NW 9.2 mph - N/A   Overcast
8:00 PM 57.2 °F 50.0 °F 77% 30.12 in 6.2 mi NW 10.4 mph - N/A   Overcast
8:30 PM 57.2 °F 50.0 °F 77% 30.12 in 6.2 mi NW 6.9 mph - N/A   Overcast
9:00 PM 57.2 °F 50.0 °F 77% 30.12 in 6.2 mi WNW 8.1 mph - N/A   Overcast
9:30 PM 57.2 °F 50.0 °F 77% 30.12 in 6.2 mi WNW 6.9 mph - N/A   Overcast
10:00 PM 55.4 °F 50.0 °F 82% 30.12 in 6.2 mi WNW 6.9 mph - N/A   Unknown
10:30 PM 55.4 °F 50.0 °F 82% 30.12 in 6.2 mi WNW 3.5 mph - N/A   Mostly Cloudy
11:00 PM 55.4 °F 50.0 °F 82% 30.12 in 6.2 mi WSW 3.5 mph - N/A   Mostly Cloudy
11:30 PM 55.4 °F 51.8 °F 88% 30.12 in 6.2 mi West 3.5 mph - N/A   Unknown